Regional Weather Roundup
Issued by NWS

Home | Current Version | Previous Version | Text Only | Print | Product List | Glossary Off
Versions: 1 2 3 4 5 6 7 8 9 10 11 12 13 14 15 16 17 18 19 20 21 22 23 24 25 26 27 28 29 30 31 32 33 34 35 36 37 38 39 40 41 42 43 44 45 46 47 48 49 50

921
ASUS43 KLMK 161302
RWRKY
KENTUCKY REGIONAL WEATHER ROUNDUP
NATIONAL WEATHER SERVICE LOUISVILLE KY
800 AM EST SAT DEC 16 2017

NOTE "FAIR" INDICATES FEW OR NO CLOUDS BELOW 12,000 FEET
WITH NO SIGNIFICANT WEATHER AND/OR OBSTRUCTIONS TO VISIBILITY.

KYZ001>023-026-027-061>063-070>075-161400-
WESTERN AND SOUTH CENTRAL KENTUCKY

CITY           SKY/WX    TMP DP  RH WIND       PRES   REMARKS
PADUCAH        CLEAR     33  25  72 VRB6      30.14R WCI  28
HENDERSON      CLEAR     32  27  81 S8        30.12S WCI  25
OWENSBORO      CLEAR     31  27  85 S12       30.14S WCI  22
HOPKINSVILLE   CLEAR     32  25  75 S8        30.18R WCI  25
BOWLING GREEN  CLEAR     31  25  78 S7        30.20R WCI  24
GLASGOW        NOT AVBL
$$

KYZ024-025-028>034-038-045-046-053-161400-
NORTH CENTRAL KENTUCKY

CITY           SKY/WX    TMP DP  RH WIND       PRES   REMARKS
LOUISVILLE/SDF PTCLDY    34  25  69 S7        30.14R WCI  28
LOUISVILLE/LOU CLEAR     30  25  81 S8        30.14S WCI  22
FORT KNOX      CLEAR     29  24  81 S8        30.12S WCI  21
$$

KYZ035>037-039>044-047>052-055>060-089>105-161400-
NORTHEAST KENTUCKY

CITY           SKY/WX    TMP DP  RH WIND       PRES   REMARKS
LEXINGTON      CLEAR     30  23  75 S12       30.14S WCI  20
COVINGTON      PTCLDY    32  25  75 SW13      30.07S WCI  22
FRANKFORT      CLEAR     31  22  69 SW12      30.13R WCI  22
$$

KYZ054-064>069-076>088-106>120-161400-
SOUTHEAST KENTUCKY

CITY           SKY/WX    TMP DP  RH WIND       PRES   REMARKS
JACKSON        CLEAR     29  21  72 SW5       30.17R WCI  24
LONDON         CLEAR     30  21  69 S6        30.20R WCI  24
SOMERSET       NOT AVBL
MIDDLESBORO    CLOUDY    21  20  96 CALM      30.26R
MONTICELLO     SUNNY     19  17  92 N8        30.23R WCI   9
$$





USA.gov is the U.S. government's official web portal to all federal, state and local government web resources and services.